Location: Amarillo Post Office Jordan Station
(35.1907°N, 101.9342°W)
Time: 12:36:34
(UTC+00:00)

Cosmos 1758 Rocket - Pass Details

Date: 24 January 2021
Orbit: 601 x 636 km, 82.5° (Epoch: 04 March)

Event Time Altitude Azimuth Distance (km) Brightness Sun altitude
Rises 13:13:50 0° 347° (NNW) 2,936 6.7 -8.1°
Reaches altitude 10° 13:16:07 10° 342° (NNW) 2,021 5.9 -7.7°
Maximum altitude 13:20:28 52° 267° (W) 787 3.8 -6.8°
Drops below altitude 10° 13:24:45 10° 191° (S) 1,990 6.3 -6.0°
Sets 13:27:00 0° 186° (S) 2,886 7.2 -5.6°
